Location: Altenst�hlen
(53.5567°N, 8.9425°E)
Time: 21:44:23
(UTC+00:00)

STARLINK-28 - Pass Details

Date: 23 October 2019
Orbit: 548 x 551 km, 53.0° (Epoch: 20 November)

Event Time Altitude Azimuth Distance (km) Brightness Sun altitude
Rises 17:18:20 0° 272° (W) 2,721 9.3 -10.7°
Reaches altitude 10° 17:20:34 10° 272° (W) 1,827 7.8 -11.0°
Maximum altitude 17:24:43 83° 184° (S) 560 3.6 -11.6°
Enters shadow 17:27:46 18° 98° (E) 1,393 5.0 -12.1°
